Powrót do katalogu

STARLINK-11291

AktywnyŁącznośćVLEO
NORAD 61208·PAYLOAD·🇺🇸 United States

Wystrzelony Sep 20, 2024 z Vandenberg Space Force Base

Loading…

Następne Przeloty (najbliższe 24 godziny)

TLE

ŚwieżeSource: CelesTrak SupGP

Epoka: Sep 15, 2026, 02:15 UTC

1 61208C 24171J   26258.09423611  .00041409  00000+0  34113-3 0  2581
2 61208  53.1568 322.2978 0001190  80.7664 165.1647 15.69686448    10

Śledź STARLINK-11291 w czasie rzeczywistym z AllMySat

Download on the App Store